period_start,C,m1,H,J0,J1,J2,J3,J4,J5,JA,JB,JC,JD,JJ,JK,JN,#
2014-01-18 00:00:39,0.57,9.30,0.00,19.42,25.50,28.85,6.33,33.04,1028.38,2042.98,1351.37,1630.11,1754.38,350.88,332.27,26.22,0000 0000 0000 0000 000000
2014-01-18 00:01:40,0.52,9.31,0.00,19.42,25.50,28.84,6.08,33.08,1028.39,2042.99,1351.13,1630.03,1754.13,350.47,332.42,26.23,0000 0000 0000 0000 000000
2014-01-18 00:02:40,0.29,9.31,0.00,19.42,25.50,28.86,6.38,33.21,1028.41,2042.99,1350.93,1629.70,1753.99,350.69,332.39,26.24,0000 0000 0000 0000 000000
2014-01-18 00:03:40,0.47,9.31,0.00,19.42,25.50,28.84,6.06,33.21,1028.37,2042.99,1350.49,1629.27,1753.56,349.17,330.94,26.24,0000 0000 0000 0000 000000
2014-01-18 00:04:41,0.63,9.32,0.00,19.42,25.50,28.85,6.08,33.21,1028.39,2042.99,1350.18,1629.10,1753.21,350.59,332.70,26.25,0000 0000 0000 0000 000000
2014-01-18 00:05:41,0.40,9.32,0.00,19.42,25.49,28.86,6.18,33.38,1028.37,2042.98,1350.02,1629.00,1753.07,349.76,331.49,26.25,0000 0000 0000 0000 000000
2014-01-18 00:06:41,0.26,9.32,0.00,19.42,25.50,28.86,6.34,33.54,1028.38,2042.97,1349.50,1628.59,1752.83,350.44,331.96,26.26,0000 0000 0000 0000 000000
2014-01-18 00:07:41,0.62,9.32,0.00,19.40,25.49,28.84,6.12,33.42,1028.38,2042.97,1349.18,1628.23,1752.35,349.73,331.70,26.26,0000 0000 0000 0000 000000
2014-01-18 00:08:42,0.56,9.33,0.00,19.40,25.49,28.84,6.25,33.38,1028.38,2042.98,1348.97,1628.08,1752.12,350.32,332.06,26.27,0000 0000 0000 0000 000000
2014-01-18 00:09:42,0.37,9.33,0.00,19.40,25.49,28.83,6.13,33.38,1028.41,2042.97,1348.44,1627.89,1751.97,350.59,332.32,26.28,0000 0000 0000 0000 000000
2014-01-18 00:10:42,0.49,9.33,0.00,19.39,25.49,28.84,6.09,33.29,1028.36,2042.98,1348.16,1627.46,1751.55,350.30,332.03,26.28,0000 0000 0000 0000 000000
2014-01-18 00:11:42,0.58,9.34,0.00,19.39,25.49,28.85,6.29,33.25,1028.35,2042.98,1348.05,1627.17,1751.20,350.16,331.90,26.29,0000 0000 0000 0000 000000
2014-01-18 00:12:43,0.35,9.34,0.00,19.39,25.49,28.86,6.18,33.04,1028.36,2042.98,1347.71,1627.06,1751.06,350.28,331.64,26.29,0000 0000 0000 0000 000000
2014-01-18 00:13:43,0.37,9.34,0.00,19.39,25.49,28.84,6.22,33.17,1028.36,2042.99,1347.26,1626.89,1750.82,349.99,331.72,26.30,0000 0000 0000 0000 000000
2014-01-18 00:14:43,0.51,9.34,0.00,19.39,25.49,28.86,6.14,32.92,1028.36,2042.99,1347.09,1626.44,1750.37,349.37,331.12,26.31,0000 0000 0000 0000 000000
2014-01-18 00:15:43,0.50,9.35,0.00,19.39,25.49,28.85,6.25,33.25,1028.37,2042.99,1346.91,1626.16,1750.13,350.15,331.45,26.31,0000 0000 0000 0000 000000
2014-01-18 00:16:44,0.42,9.35,0.00,19.39,25.49,28.87,6.29,33.21,1028.37,2042.98,1346.41,1626.04,1750.01,350.85,331.55,26.32,0000 0000 0000 0000 000000
2014-01-18 00:17:44,0.38,9.35,0.00,19.40,25.49,28.86,6.20,33.33,1028.35,2042.98,1346.15,1625.87,1749.67,350.06,331.80,26.32,0000 0000 0000 0000 000000
2014-01-18 00:18:44,0.41,9.35,0.00,19.40,25.48,28.84,6.17,33.29,1028.34,2042.97,1345.96,1625.44,1749.27,349.72,331.47,26.33,0000 0000 0000 0000 000000
2014-01-18 00:19:44,0.51,9.36,0.00,19.40,25.48,28.84,6.13,33.21,1028.36,2042.98,1345.50,1625.16,1749.09,349.59,331.34,26.34,0000 0000 0000 0000 000000
2014-01-18 00:20:44,0.52,9.36,0.00,19.42,25.48,28.84,6.11,33.21,1028.37,2042.99,1345.18,1625.04,1748.87,349.73,331.47,26.34,0000 0000 0000 0000 000000
2014-01-18 00:21:45,0.39,9.36,0.00,19.41,25.48,28.83,6.11,33.29,1028.36,2042.99,1344.98,1624.76,1748.35,349.32,331.08,26.35,0000 0000 0000 0000 000000
2014-01-18 00:22:45,0.51,9.36,0.00,19.40,25.48,28.84,6.24,33.21,1028.35,2042.99,1344.46,1624.32,1748.12,349.97,332.00,26.35,0000 0000 0000 0000 000000
2014-01-18 00:23:45,0.61,9.37,0.00,19.40,25.48,28.85,6.32,33.33,1028.37,2042.97,1344.17,1624.11,1747.98,350.32,332.05,26.36,0000 0000 0000 0000 000000
2014-01-18 00:24:45,0.39,9.37,0.00,19.40,25.48,28.85,6.37,33.33,1028.35,2042.97,1344.01,1624.00,1747.55,350.81,332.51,26.36,0000 0000 0000 0000 000000
2014-01-18 00:25:46,0.31,9.37,0.00,19.41,25.48,28.85,6.06,33.29,1028.35,2042.97,1343.60,1623.69,1747.20,350.26,332.22,26.37,0000 0000 0000 0000 000000
2014-01-18 00:26:46,0.58,9.38,0.00,19.40,25.47,28.86,6.38,33.29,1028.35,2042.95,1343.22,1623.28,1747.06,351.05,332.38,26.38,0000 0000 0000 0000 000000
2014-01-18 00:27:46,0.50,9.38,0.00,19.40,25.47,28.86,6.19,33.50,1028.35,2042.97,1343.08,1623.10,1746.85,350.20,331.92,26.38,0000 0000 0000 0000 000000
2014-01-18 00:28:47,0.32,9.38,0.00,19.39,25.47,28.85,6.18,33.33,1028.36,2042.98,1342.90,1622.93,1746.35,350.47,332.13,26.39,0000 0000 0000 0000 000000
2014-01-18 00:29:47,0.44,9.38,0.00,19.39,25.47,28.85,6.28,33.38,1028.35,2042.98,1342.39,1622.49,1746.13,349.91,331.66,26.39,0000 0000 0000 0000 000000
2014-01-18 00:30:47,0.60,9.39,0.00,19.39,25.47,28.84,6.04,33.42,1028.35,2042.97,1342.14,1622.18,1746.00,349.40,331.18,26.40,0000 0000 0000 0000 000000
2014-01-18 00:31:48,0.43,9.39,0.00,19.39,25.47,28.84,6.18,33.50,1028.34,2042.98,1341.91,1622.05,1745.57,350.09,331.83,26.41,0000 0000 0000 0000 000000
2014-01-18 00:32:48,0.40,9.39,0.00,19.39,25.47,28.83,6.28,33.33,1028.35,2042.97,1341.46,1621.88,1745.20,350.71,332.42,26.41,0000 0000 0000 0000 000000
2014-01-18 00:33:48,0.53,9.39,0.00,19.39,25.47,28.86,6.02,33.29,1028.36,2042.97,1341.17,1621.44,1745.04,349.33,331.18,26.42,0000 0000 0000 0000 000000
2014-01-18 00:34:48,0.50,9.40,0.00,19.40,25.47,28.85,6.18,33.29,1028.34,2042.99,1341.05,1621.16,1744.83,348.99,330.61,26.42,0000 0000 0000 0000 000000
2014-01-18 00:35:49,0.33,9.40,0.00,19.39,25.47,28.86,6.12,33.42,1028.35,2042.98,1340.68,1621.02,1744.36,349.67,331.43,26.43,0000 0000 0000 0000 000000
2014-01-18 00:36:49,0.52,9.40,0.00,19.39,25.47,28.87,6.23,33.42,1028.34,2042.97,1340.26,1620.76,1744.13,350.07,331.80,26.43,0000 0000 0000 0000 000000
2014-01-18 00:37:49,0.49,9.40,0.00,19.39,25.47,28.86,6.39,33.25,1028.34,2042.98,1340.08,1620.31,1744.03,351.06,332.80,26.44,0000 0000 0000 0000 000000
2014-01-18 00:38:50,0.39,9.41,0.00,19.40,25.47,28.86,6.32,33.42,1028.34,2042.97,1339.75,1620.11,1743.63,350.42,332.26,26.45,0000 0000 0000 0000 000000
2014-01-18 00:39:50,0.54,9.41,0.00,19.40,25.47,28.83,6.31,33.29,1028.35,2042.97,1339.29,1620.03,1743.23,349.80,331.55,26.45,0000 0000 0000 0000 000000
2014-01-18 00:40:50,0.39,9.41,0.00,19.40,25.47,28.81,5.96,33.29,1028.34,2042.96,1339.10,1619.72,1743.06,349.03,330.81,26.46,0000 0000 0000 0000 000000
2014-01-18 00:41:50,0.43,9.42,0.00,19.41,25.47,28.84,6.33,33.29,1028.34,2042.97,1338.80,1619.28,1742.74,350.27,332.03,26.46,0000 0000 0000 0000 000000
2014-01-18 00:42:50,0.65,9.42,0.00,19.41,25.47,28.84,6.26,33.25,1028.34,2042.96,1338.32,1619.10,1742.27,350.78,332.68,26.47,0000 0000 0000 0000 000000
2014-01-18 00:43:51,0.48,9.42,0.00,19.40,25.47,28.85,6.13,33.25,1028.34,2042.97,1338.11,1619.02,1742.09,349.33,331.10,26.48,0000 0000 0000 0000 000000
2014-01-18 00:44:51,0.24,9.42,0.00,19.40,25.47,28.86,6.08,33.00,1028.35,2042.93,1337.86,1618.66,1741.95,349.49,331.32,26.48,0000 0000 0000 0000 000000
2014-01-18 00:45:51,0.47,9.43,0.00,19.40,25.47,28.86,6.28,33.75,1028.34,2042.94,1337.37,1618.25,1741.51,350.41,331.98,26.49,0000 0000 0000 0000 000000
2014-01-18 00:46:52,0.69,9.43,0.00,19.40,25.47,28.82,6.17,33.29,1028.34,2042.95,1337.13,1618.08,1741.18,349.74,331.49,26.49,0000 0000 0000 0000 000000
2014-01-18 00:47:52,0.35,9.43,0.00,19.39,25.47,28.84,6.37,33.46,1028.35,2042.94,1336.93,1617.93,1741.06,351.25,332.48,26.50,0000 0000 0000 0000 000000
2014-01-18 00:48:52,0.29,9.43,0.00,19.39,25.47,28.80,6.28,33.33,1028.35,2042.96,1336.42,1617.51,1740.84,350.43,331.91,26.51,0000 0000 0000 0000 000000
2014-01-18 00:49:52,0.71,9.44,0.00,19.38,25.47,28.81,6.13,33.29,1028.34,2042.96,1336.16,1617.21,1740.36,350.00,332.04,26.51,0000 0000 0000 0000 000000
2014-01-18 00:50:53,0.49,9.44,0.00,19.37,25.47,28.83,6.26,33.17,1028.35,2042.95,1336.02,1617.06,1740.13,349.82,331.44,26.52,0000 0000 0000 0000 000000
2014-01-18 00:51:53,0.27,9.44,0.00,19.37,25.47,28.84,6.34,33.46,1028.35,2042.96,1335.56,1616.96,1740.03,350.17,332.18,26.52,0000 0000 0000 0000 000000
2014-01-18 00:52:53,0.40,9.44,0.00,19.37,25.47,28.83,6.37,33.38,1028.34,2042.97,1335.21,1616.57,1739.68,350.74,332.28,26.53,0000 0000 0000 0000 000000
2014-01-18 00:53:54,0.61,9.45,0.00,19.39,25.47,28.82,6.12,33.29,1028.34,2042.96,1335.07,1616.22,1739.27,349.63,331.25,26.53,0000 0000 0000 0000 000000
2014-01-18 00:54:54,0.39,9.45,0.00,19.39,25.47,28.82,6.28,33.21,1028.34,2042.97,1334.73,1616.08,1739.09,349.47,331.73,26.54,0000 0000 0000 0000 000000
2014-01-18 00:55:54,0.44,9.45,0.00,19.38,25.47,28.84,6.41,33.25,1028.35,2042.97,1334.28,1615.92,1738.91,350.55,332.28,26.55,0000 0000 0000 0000 000000
2014-01-18 00:56:54,0.47,9.46,0.00,19.39,25.47,28.85,6.10,33.17,1028.34,2042.96,1334.09,1615.48,1738.43,349.71,331.47,26.55,0000 0000 0000 0000 000000
2014-01-18 00:57:55,0.51,9.46,0.00,19.38,25.47,28.84,6.42,33.21,1028.34,2042.94,1333.75,1615.19,1738.16,350.46,332.18,26.56,0000 0000 0000 0000 000000
2014-01-18 00:58:55,0.53,9.46,0.00,19.39,25.47,28.83,6.22,33.21,1028.34,2042.94,1333.29,1615.04,1738.02,349.29,330.95,26.56,0000 0000 0000 0000 000000
2014-01-18 00:59:55,0.40,9.46,0.00,19.38,25.47,28.85,6.14,33.25,1028.34,2042.96,1333.10,1614.79,1737.58,351.17,332.49,26.57,0000 0000 0000 0000 000000
2014-01-18 01:00:55,0.51,9.47,0.00,19.39,25.47,28.86,6.25,33.42,1028.34,2042.95,1332.90,1614.33,1737.22,350.04,331.78,26.58,0000 0000 0000 0000 000000
2014-01-18 01:01:55,0.47,9.47,0.00,19.39,25.47,28.86,6.34,33.25,1028.34,2042.95,1332.44,1614.12,1737.07,351.16,332.85,26.58,0000 0000 0000 0000 000000
2014-01-18 01:02:56,0.49,9.47,0.00,19.39,25.47,28.86,6.15,33.29,1028.34,2042.95,1332.16,1614.02,1736.93,349.89,331.99,26.59,0000 0000 0000 0000 000000
2014-01-18 01:03:56,0.31,9.47,0.00,19.39,25.47,28.85,6.10,33.13,1028.34,2042.96,1332.03,1613.79,1736.45,349.17,331.19,26.59,0000 0000 0000 0000 000000
2014-01-18 01:04:56,0.40,9.48,0.00,19.39,25.47,28.86,6.11,33.21,1028.34,2042.97,1331.61,1613.34,1736.16,349.54,331.31,26.60,0000 0000 0000 0000 000000
2014-01-18 01:05:56,0.66,9.48,0.00,19.39,25.47,28.86,6.17,33.21,1028.34,2042.95,1331.23,1613.12,1736.05,349.66,331.43,26.60,0000 0000 0000 0000 000000
2014-01-18 01:06:56,0.39,9.48,0.00,19.38,25.47,28.86,6.29,33.04,1028.34,2042.96,1331.05,1613.03,1735.81,349.98,331.74,26.61,0000 0000 0000 0000 000000
2014-01-18 01:07:57,0.30,9.49,0.00,19.39,25.47,28.85,6.38,33.17,1028.34,2042.95,1330.66,1612.80,1735.35,350.86,332.39,26.62,0000 0000 0000 0000 000000
2014-01-18 01:08:57,0.57,9.49,0.00,19.37,25.47,28.84,6.13,33.21,1028.34,2042.96,1330.25,1612.34,1735.13,349.24,331.04,26.62,0000 0000 0000 0000 000000
2014-01-18 01:09:57,0.61,9.49,0.00,19.37,25.47,28.83,6.02,33.17,1028.35,2042.96,1330.08,1612.12,1734.98,348.99,330.82,26.63,0000 0000 0000 0000 000000
2014-01-18 01:10:58,0.32,9.49,0.00,19.37,25.47,28.82,6.48,33.17,1028.34,2042.96,1329.88,1612.03,1734.56,350.90,332.62,26.63,0000 0000 0000 0000 000000
2014-01-18 01:11:58,0.32,9.50,0.00,19.38,25.47,28.84,6.08,33.13,1028.34,2042.96,1329.41,1611.79,1734.21,348.86,330.68,26.64,0000 0000 0000 0000 000000
2014-01-18 01:12:58,0.61,9.50,0.00,19.39,25.47,28.84,6.27,33.08,1028.34,2042.96,1329.14,1611.34,1734.07,350.24,331.98,26.65,0000 0000 0000 0000 000000
2014-01-18 01:13:58,0.49,9.50,0.00,19.37,25.47,28.83,6.20,33.08,1028.34,2042.94,1328.95,1611.12,1733.83,350.02,332.24,26.65,0000 0000 0000 0000 000000
2014-01-18 01:14:58,0.33,9.50,0.00,19.37,25.47,28.82,6.27,33.17,1028.34,2042.93,1328.43,1611.02,1733.38,350.78,332.85,26.66,0000 0000 0000 0000 000000
2014-01-18 01:15:59,0.53,9.51,0.00,19.38,25.47,28.84,6.30,33.17,1028.34,2042.94,1328.15,1610.64,1733.15,349.99,331.58,26.66,0000 0000 0000 0000 000000
2014-01-18 01:16:59,0.53,9.51,0.00,19.37,25.47,28.83,6.27,33.17,1028.34,2042.93,1327.99,1610.27,1733.04,349.67,331.45,26.67,0000 0000 0000 0000 000000
2014-01-18 01:17:59,0.31,9.51,0.00,19.38,25.47,28.84,6.11,32.96,1028.34,2042.93,1327.65,1610.10,1732.65,349.74,331.20,26.68,0000 0000 0000 0000 000000
2014-01-18 01:18:59,0.54,9.52,0.00,19.37,25.47,28.81,6.24,33.17,1028.34,2042.96,1327.25,1610.00,1732.25,350.63,331.87,26.68,0000 0000 0000 0000 000000
2014-01-18 01:20:00,0.44,9.52,0.00,19.37,25.47,28.83,6.26,33.00,1028.34,2042.95,1326.99,1609.61,1732.09,350.19,331.94,26.69,0000 0000 0000 0000 000000
2014-01-18 01:21:00,0.48,9.52,0.00,19.37,25.47,28.84,6.29,33.17,1028.34,2042.95,1326.49,1609.24,1731.99,350.62,332.42,26.69,0000 0000 0000 0000 000000
2014-01-18 01:22:00,0.59,9.52,0.00,19.38,25.47,28.84,6.26,33.42,1028.34,2042.95,1326.19,1609.09,1731.60,350.12,331.37,26.70,0000 0000 0000 0000 000000
2014-01-18 01:23:00,0.45,9.53,0.00,19.38,25.47,28.85,6.19,33.25,1028.34,2042.98,1326.06,1609.00,1731.22,350.13,332.07,26.70,0000 0000 0000 0000 000000
2014-01-18 01:24:00,0.25,9.53,0.00,19.37,25.47,28.85,6.10,33.04,1028.34,2042.98,1325.92,1608.70,1731.07,349.85,331.63,26.71,0000 0000 0000 0000 000000
2014-01-18 01:25:00,0.34,9.53,0.00,19.37,25.47,28.84,6.42,33.29,1028.34,2042.98,1325.46,1608.28,1730.87,350.61,332.34,26.72,0000 0000 0000 0000 000000
2014-01-18 01:26:01,0.69,9.53,0.00,19.39,25.47,28.82,6.02,33.21,1028.34,2042.98,1325.17,1608.10,1730.40,349.02,330.82,26.72,0000 0000 0000 0000 000000
2014-01-18 01:27:01,0.46,9.54,0.00,19.37,25.47,28.83,6.38,33.17,1028.34,2042.98,1325.05,1608.02,1730.15,351.04,332.26,26.73,0000 0000 0000 0000 000000
2014-01-18 01:28:01,0.19,9.54,0.00,19.38,25.47,28.85,6.31,33.21,1028.34,2042.97,1324.90,1607.78,1729.96,350.15,331.90,26.73,0000 0000 0000 0000 000000
2014-01-18 01:29:01,0.28,9.54,0.00,19.39,25.47,28.83,6.11,33.13,1028.34,2042.97,1324.42,1607.31,1729.47,349.43,331.61,26.74,0000 0000 0000 0000 000000
2014-01-18 01:30:01,0.87,9.55,0.00,19.39,25.47,28.84,6.37,33.13,1028.34,2042.97,1324.15,1607.11,1729.18,350.64,332.35,26.75,0000 0000 0000 0000 000000
2014-01-18 01:31:01,0.36,9.55,0.00,19.38,25.47,28.86,6.37,33.17,1028.34,2042.95,1323.97,1607.00,1729.06,350.38,332.42,26.75,0000 0000 0000 0000 000000
2014-01-18 01:32:02,0.18,9.55,0.00,19.36,25.47,28.84,6.35,33.21,1028.34,2042.97,1323.48,1606.69,1728.83,350.50,332.44,26.76,0000 0000 0000 0000 000000
2014-01-18 01:33:02,0.68,9.55,0.00,19.36,25.47,28.83,6.25,33.17,1028.34,2042.98,1323.17,1606.28,1728.36,350.30,332.07,26.76,0000 0000 0000 0000 000000
2014-01-18 01:34:02,0.63,9.56,0.00,19.37,25.47,28.83,6.18,33.00,1028.34,2042.98,1323.05,1606.10,1728.13,349.46,331.26,26.77,0000 0000 0000 0000 000000
2014-01-18 01:35:03,0.25,9.56,0.00,19.37,25.47,28.82,6.26,33.04,1028.34,2042.97,1322.68,1606.01,1728.02,350.32,332.07,26.77,0000 0000 0000 0000 000000
2014-01-18 01:36:03,0.34,9.56,0.00,19.37,25.47,28.80,6.23,32.92,1028.34,2042.97,1322.25,1605.63,1727.67,350.20,332.07,26.78,0000 0000 0000 0000 000000
2014-01-18 01:37:03,0.68,9.56,0.00,19.37,25.47,28.83,6.07,32.96,1028.34,2042.98,1322.08,1605.23,1727.25,350.11,331.87,26.79,0000 0000 0000 0000 000000
2014-01-18 01:38:03,0.48,9.57,0.00,19.37,25.47,28.83,6.27,33.21,1028.34,2042.98,1321.88,1605.08,1727.09,350.35,332.32,26.79,0000 0000 0000 0000 000000
2014-01-18 01:39:04,0.26,9.57,0.00,19.38,25.47,28.85,6.28,33.25,1028.34,2042.98,1321.38,1605.00,1727.03,350.38,332.20,26.80,0000 0000 0000 0000 000000
2014-01-18 01:40:04,0.43,9.57,0.00,19.37,25.47,28.83,6.20,33.17,1028.34,2042.95,1321.13,1604.66,1726.74,350.50,332.35,26.80,0000 0000 0000 0000 000000
2014-01-18 01:41:04,0.48,9.57,0.00,19.38,25.47,28.82,6.27,33.13,1028.34,2042.94,1320.87,1604.25,1726.30,350.06,331.81,26.81,0000 0000 0000 0000 000000
2014-01-18 01:42:04,0.55,9.58,0.00,19.39,25.47,28.84,6.23,33.17,1028.34,2042.93,1320.36,1604.08,1726.10,350.59,332.31,26.82,0000 0000 0000 0000 000000
2014-01-18 01:43:05,0.51,9.58,0.00,19.39,25.47,28.83,6.24,33.25,1028.34,2042.94,1320.13,1603.99,1726.01,350.14,331.80,26.82,0000 0000 0000 0000 000000
2014-01-18 01:44:05,0.22,9.58,0.00,19.37,25.47,28.83,6.28,33.25,1028.34,2042.93,1319.86,1603.56,1725.62,350.56,332.47,26.83,0000 0000 0000 0000 000000
2014-01-18 01:45:05,0.60,9.58,0.00,19.38,25.47,28.83,6.34,33.25,1028.34,2042.95,1319.36,1603.20,1725.23,349.72,331.49,26.83,0000 0000 0000 0000 000000
2014-01-18 01:46:05,0.74,9.59,0.00,19.39,25.47,28.83,6.29,33.38,1028.34,2042.81,1319.12,1603.06,1725.06,350.22,331.95,26.84,0000 0000 0000 0000 000000
2014-01-18 01:47:05,0.00,9.59,0.00,19.38,25.47,28.84,6.32,33.33,1028.34,2042.71,1318.89,1602.78,1724.73,349.52,331.30,26.84,0000 0000 0000 0000 000000
2014-01-18 01:48:06,0.35,9.59,0.00,19.37,25.47,28.83,6.28,33.25,1028.34,2042.75,1318.41,1602.32,1724.29,350.02,332.04,26.85,0000 0000 0000 0000 000000
2014-01-18 01:49:06,0.94,9.60,0.00,19.37,25.47,28.82,6.24,33.21,1028.34,2042.82,1318.14,1602.12,1724.10,349.48,331.55,26.86,0000 0000 0000 0000 000000
2014-01-18 01:50:06,0.42,9.60,0.00,19.37,25.47,28.85,6.22,33.00,1028.34,2042.85,1318.00,1602.04,1724.01,349.63,331.42,26.86,0000 0000 0000 0000 000000
2014-01-18 01:51:06,0.19,9.60,0.00,19.37,25.47,28.83,6.27,33.21,1028.34,2042.93,1317.60,1601.92,1723.68,350.57,332.32,26.87,0000 0000 0000 0000 000000
2014-01-18 01:52:07,0.55,9.60,0.00,19.37,25.47,28.84,6.10,33.04,1028.34,2042.94,1317.23,1601.50,1723.28,349.91,331.68,26.87,0000 0000 0000 0000 000000
2014-01-18 01:53:07,0.72,9.61,0.00,19.38,25.47,28.85,6.10,33.08,1028.34,2042.94,1317.05,1601.20,1723.10,349.26,331.06,26.88,0000 0000 0000 0000 000000
2014-01-18 01:54:07,0.36,9.61,0.00,19.37,25.47,28.84,6.32,33.17,1028.34,2042.94,1316.73,1601.06,1723.00,350.26,332.01,26.89,0000 0000 0000 0000 000000
2014-01-18 01:55:07,0.29,9.61,0.00,19.38,25.47,28.84,6.17,33.21,1028.34,2042.93,1316.28,1600.90,1722.58,350.13,331.87,26.89,0000 0000 0000 0000 000000
2014-01-18 01:56:07,0.55,9.61,0.00,19.39,25.47,28.82,6.27,33.08,1028.34,2042.93,1316.10,1600.47,1722.22,350.46,332.18,26.90,0000 0000 0000 0000 000000
2014-01-18 01:57:07,0.57,9.62,0.00,19.37,25.47,28.83,6.47,33.21,1028.34,2042.93,1315.93,1600.18,1722.07,350.42,332.16,26.90,0000 0000 0000 0000 000000
2014-01-18 01:58:08,0.29,9.62,0.00,19.37,25.47,28.84,6.37,33.17,1028.34,2042.94,1315.49,1600.06,1721.88,350.65,332.05,26.91,0000 0000 0000 0000 000000
2014-01-18 01:59:08,0.49,9.62,0.00,19.37,25.47,28.82,6.24,33.21,1028.34,2042.93,1315.19,1599.95,1721.40,349.47,331.44,26.92,0000 0000 0000 0000 000000
2014-01-18 02:00:08,0.44,9.63,0.00,19.37,25.47,28.84,6.38,33.38,1028.34,2042.95,1315.05,1599.52,1721.14,351.23,332.94,26.92,0000 0000 0000 0000 000000
2014-01-18 02:01:09,0.47,9.63,0.00,19.37,25.47,28.84,6.11,33.21,1028.34,2042.95,1314.89,1599.20,1721.00,349.28,331.08,26.93,0000 0000 0000 0000 000000
2014-01-18 02:02:09,0.35,9.63,0.00,19.37,25.47,28.86,6.44,33.46,1028.34,2042.95,1314.43,1599.07,1720.53,350.74,332.47,26.93,0000 0000 0000 0000 000000
2014-01-18 02:03:09,0.56,9.63,0.00,19.37,25.47,28.84,6.47,33.42,1028.34,2042.94,1314.16,1599.02,1720.19,350.97,332.69,26.94,0000 0000 0000 0000 000000
2014-01-18 02:04:09,0.31,9.64,0.00,19.37,25.47,28.83,6.17,33.29,1028.34,2042.92,1313.98,1598.84,1720.06,349.38,331.38,26.94,0000 0000 0000 0000 000000
2014-01-18 02:05:10,0.26,9.64,0.00,19.37,25.47,28.84,6.05,33.29,1028.34,2042.92,1313.60,1598.41,1719.86,349.36,331.41,26.95,0000 0000 0000 0000 000000
2014-01-18 02:06:10,0.62,9.64,0.00,19.36,25.47,28.84,6.18,33.21,1028.34,2042.94,1313.24,1598.14,1719.39,350.10,332.01,26.96,0000 0000 0000 0000 000000
2014-01-18 02:07:10,0.55,9.64,0.00,19.34,25.47,28.84,6.13,33.25,1028.34,2042.90,1313.05,1598.03,1719.15,349.82,331.63,26.96,0000 0000 0000 0000 000000
2014-01-18 02:08:10,0.25,9.65,0.00,19.37,25.47,28.84,6.01,33.21,1028.34,2042.89,1312.70,1597.73,1718.98,349.22,330.98,26.97,0000 0000 0000 0000 000000
2014-01-18 02:09:11,0.50,9.65,0.00,19.36,25.47,28.84,6.11,33.21,1028.34,2042.90,1312.30,1597.30,1718.53,349.58,331.39,26.97,0000 0000 0000 0000 000000
2014-01-18 02:10:11,0.69,9.65,0.00,19.35,25.47,28.83,6.13,33.25,1028.34,2042.80,1312.09,1597.10,1718.19,349.44,331.51,26.98,0000 0000 0000 0000 000000
2014-01-18 02:11:11,0.25,9.65,0.00,19.35,25.47,28.82,6.22,33.25,1028.34,2042.73,1311.78,1597.00,1718.06,349.56,331.61,26.99,0000 0000 0000 0000 000000
2014-01-18 02:12:11,0.21,9.65,0.00,19.35,25.47,28.83,6.42,33.17,1028.34,2042.82,1311.31,1596.69,1717.80,350.44,332.21,26.99,0000 0000 0000 0000 000000
2014-01-18 02:13:12,0.72,9.66,0.00,19.36,25.47,28.82,6.06,33.08,1028.34,2042.80,1311.10,1596.29,1717.36,349.86,331.65,27.00,0000 0000 0000 0000 000000
2014-01-18 02:14:12,0.54,9.66,0.00,19.36,25.47,28.83,6.15,33.25,1028.34,2042.79,1310.87,1596.10,1717.13,350.07,331.84,27.00,0000 0000 0000 0000 000000
2014-01-18 02:15:12,0.35,9.66,0.00,19.35,25.47,28.83,6.27,33.21,1028.34,2042.87,1310.42,1596.00,1717.02,350.78,332.53,27.01,0000 0000 0000 0000 000000
2014-01-18 02:16:13,0.54,9.67,0.00,19.35,25.47,28.84,6.19,33.25,1028.34,2042.89,1310.15,1595.64,1716.61,349.69,331.81,27.01,0000 0000 0000 0000 000000
2014-01-18 02:17:13,0.53,9.67,0.00,19.34,25.47,28.84,6.20,33.25,1028.34,2042.88,1309.95,1595.25,1716.23,350.28,332.20,27.02,0000 0000 0000 0000 000000
2014-01-18 02:18:13,0.52,9.67,0.00,19.35,25.47,28.87,6.30,33.25,1028.34,2042.77,1309.48,1595.08,1716.08,350.77,332.52,27.03,0000 0000 0000 0000 000000
2014-01-18 02:19:13,0.34,9.68,0.00,19.37,25.47,28.85,6.41,33.25,1028.34,2042.77,1309.18,1595.00,1715.98,350.65,332.54,27.03,0000 0000 0000 0000 000000
2014-01-18 02:20:14,0.29,9.68,0.00,19.37,25.47,28.84,6.24,33.21,1028.34,2042.80,1309.06,1594.68,1715.61,350.37,331.84,27.04,0000 0000 0000 0000 000000
2014-01-18 02:21:14,0.43,9.68,0.00,19.37,25.47,28.81,6.24,33.13,1028.33,2042.81,1308.81,1594.27,1715.25,350.10,331.72,27.04,0000 0000 0000 0000 000000
2014-01-18 02:22:14,0.55,9.68,0.00,19.37,25.47,28.81,6.21,33.04,1028.32,2042.71,1308.34,1594.09,1715.08,349.82,331.35,27.05,0000 0000 0000 0000 000000
2014-01-18 02:23:14,0.36,9.69,0.00,19.36,25.47,28.84,6.15,33.29,1028.32,2042.77,1308.13,1593.99,1714.79,349.21,331.10,27.06,0000 0000 0000 0000 000000
2014-01-18 02:24:15,0.37,9.69,0.00,19.37,25.47,28.82,6.24,33.13,1028.32,2042.73,1307.97,1593.65,1714.34,349.79,331.67,27.06,0000 0000 0000 0000 000000
2014-01-18 02:25:15,0.44,9.69,0.00,19.37,25.47,28.82,6.25,33.13,1028.30,2042.79,1307.54,1593.27,1714.11,349.77,331.51,27.07,0000 0000 0000 0000 000000
2014-01-18 02:26:15,0.70,9.69,0.00,19.36,25.47,28.81,6.37,33.13,1028.28,2042.77,1307.20,1593.09,1714.00,350.25,331.95,27.07,0000 0000 0000 0000 000000
2014-01-18 02:27:15,0.44,9.70,0.00,19.35,25.47,28.82,6.23,33.25,1028.26,2042.81,1307.02,1592.99,1713.58,350.64,332.39,27.08,0000 0000 0000 0000 000000
2014-01-18 02:28:16,0.37,9.70,0.00,19.34,25.47,28.81,6.12,33.21,1028.23,2042.83,1306.61,1592.69,1713.23,348.98,331.16,27.08,0000 0000 0000 0000 000000
2014-01-18 02:29:16,0.58,9.70,0.00,19.34,25.47,28.83,6.18,33.17,1028.21,2042.82,1306.23,1592.30,1713.08,350.03,331.39,27.09,0000 0000 0000 0000 000000
2014-01-18 02:30:16,0.56,9.71,0.00,19.36,25.47,28.83,6.07,33.17,1028.18,2042.78,1306.06,1592.10,1712.91,349.42,331.19,27.10,0000 0000 0000 0000 000000
2014-01-18 02:31:16,0.25,9.71,0.00,19.35,25.47,28.81,6.34,33.21,1028.22,2042.82,1305.78,1591.99,1712.44,350.52,332.25,27.10,0000 0000 0000 0000 000000
2014-01-18 02:32:17,0.45,9.71,0.00,19.34,25.47,28.82,6.28,33.21,1028.19,2042.81,1305.34,1591.75,1712.16,350.57,332.29,27.11,0000 0000 0000 0000 000000
2014-01-18 02:33:17,0.56,9.71,0.00,19.34,25.47,28.80,6.27,33.17,1028.22,2042.81,1305.12,1591.31,1712.06,350.85,332.29,27.11,0000 0000 0000 0000 000000
2014-01-18 02:34:17,0.48,9.72,0.00,19.34,25.47,28.81,6.12,33.21,1028.26,2042.86,1304.99,1591.11,1711.84,349.95,331.73,27.12,0000 0000 0000 0000 000000
2014-01-18 02:35:17,0.33,9.72,0.00,19.34,25.47,28.81,6.18,33.13,1028.25,2042.89,1304.59,1591.03,1711.41,349.84,331.62,27.13,0000 0000 0000 0000 000000
2014-01-18 02:36:17,0.51,9.72,0.00,19.34,25.47,28.82,6.05,33.13,1028.23,2042.84,1304.22,1590.75,1711.15,349.00,330.82,27.13,0000 0000 0000 0000 000000